Flag for U.S.A. Weather past 2 weeks in Idaho Falls, Idaho, U.S.A.

Now
33 °F

Fog.


Feels Like: 28 °F
Forecast: 26 / 36 °F
Wind: 6 mph from North

Location: Fanning Field

Current Time: Jan 29, 2015 at 7:39:25 AM

Latest Report: Jan 29, 2015 at 6:53 AM


Visibility: 2 mi

Pressure: 30.50 "Hg

Humidity: 96%

Dew point: 32 °F

Location of Idaho FallsLocation

Historic Weather in Idaho Falls — Graph

°F

Idaho Falls temperature yesterday

Maximum temperature yesterday: 37 °F (at 1:53 AM)
Minimum temperature yesterday: 34 °F (at 5:53 PM)
Average temperature yesterday: 36 °F

Past Weeks' High & Low Weather Summary

 TemperatureHumidityPressure
High43 °F (Jan 18, 3:53 PM)100% (Jan 28, 5:53 AM)30.73 "Hg (Jan 28, 5:53 AM)
Low6 °F (Jan 22, 4:53 AM)61% (Jan 23, 12:53 PM)30.11 "Hg (Jan 16, 8:01 PM)
Average26 °F87%30.44 "Hg
* Reported Jan 14 6:53 AM — Jan 29 6:02 AM, Idaho Falls, Weather by CustomWeather, © 2014

Note: Actual official high and low records may vary slightly from our data, if they occured in-between our weather recording intervals... More about our weather records

Advertising

Idaho Falls weather history for previous 24 hours

 ConditionsComfort  
Time TempWeatherWind HumidityBarometerVisibility
6:02 AM
Jan 29
33 °FFog.5 mph96%30.44 "Hg4 mi
5:53 AM33 °FFog.5 mph96%30.51 "Hg2 mi
4:53 AM34 °FFog.No wind97%30.51 "Hg4 mi
3:53 AM34 °FFog.No wind97%30.50 "Hg4 mi
2:53 AM34 °FFog.3 mph97%30.51 "Hg3 mi
1:53 AM34 °FFog.3 mph97%30.49 "Hg5 mi
12:53 AM35 °FFog.No wind88%30.48 "Hg5 mi
11:53 PM
Jan 28
35 °FOvercast.5 mph92%30.48 "Hg10 mi
10:53 PM34 °FFog.3 mph97%30.47 "Hg6 mi
9:53 PM35 °FLow clouds.No wind96%30.47 "Hg7 mi
8:53 PM35 °FMostly cloudy.5 mph92%30.45 "Hg10 mi
7:53 PM35 °FOvercast.No wind92%30.45 "Hg10 mi
6:53 PM34 °FFog.5 mph97%30.44 "Hg4 mi
5:53 PM34 °FFog.8 mph100%30.41 "Hg1 mi
4:53 PM35 °FFog.12 mph96%30.38 "Hg1 mi
3:53 PM35 °FFog.12 mph96%30.37 "Hg1 mi
2:53 PM36 °FFog.13 mph97%30.35 "Hg1 mi
1:53 PM36 °FFog.13 mph97%30.34 "Hg1 mi
12:53 PM36 °FFog.14 mph97%30.36 "Hg1 mi
11:53 AM37 °FFog.15 mph96%30.34 "Hg1 mi
10:53 AM37 °FFog.12 mph96%30.33 "Hg1 mi
9:53 AM37 °FFog.10 mph96%30.32 "Hg1 mi
8:53 AM36 °FFog.12 mph100%30.28 "Hg0 mi
7:53 AM36 °FFog.14 mph97%30.27 "Hg1 mi
Weather by CustomWeather, © 2014

See weather overviewHow to use our weather pages